[[{"header":{"parameterUnit":"m.s-1","parameterCategory":2,"la1":30.2991,"la2":30.254,"lo1":-89.0895,"lo2":-89.0444,"dy":0.0017,"dx":0.0017,"nx":28,"ny":28,"refTime":"2024-03-27T09:00:00:Z","depth":"0","parameterNumber":2,"parameterNumberName":"U-component_of_CURRENTS"},"data":[0,0,0,0,0,0,0,0,0,0,0,0,0,0,0,0,0,0,0,0,0,0,0,0,0,0,0,0,0,0,0,0,0,0,0,0,0,0,0,0,0,0,0,0,0,0,0,0,0,0,0,0,0,0,0,0,0,0,-0.3077,-0.3078,0,-0.314,-0.314,-0.3141,-0.3147,-0.3147,-0.3146,-0.3146,-0.3131,-0.3131,-0.3132,0,0,0,0,0,0,0,0,0,0,0,0,0,-0.2989,-0.2991,-0.3077,-0.3078,-0.3079,-0.3139,-0.314,-0.3141,-0.3147,-0.3147,-0.3146,-0.3145,-0.3131,-0.3131,-0.3132,0,0,0,0,0,0,0,0,0,0,0,0,0,-0.3036,-0.2991,-0.3076,-0.309,-0.3092,-0.3139,-0.314,-0.3141,-0.3147,-0.3147,-0.3146,-0.3145,-0.3131,-0.3131,-0.3132,-0.3148,0,0,-0.3132,-0.3132,0,0,0,0,0,0,0,0,-0.3033,-0.3039,-0.3087,-0.3089,-0.3092,-0.3136,-0.3104,-0.314,-0.3148,-0.3125,-0.3146,-0.3145,-0.3127,-0.3128,-0.314,-0.3147,-0.3146,-0.3132,-0.3132,-0.3132,-0.3132,0,0,0,0,0,0,0,-0.303,-0.3036,-0.31,-0.3088,-0.3091,-0.3103,-0.3108,-0.3111,-0.3127,-0.3127,-0.3128,-0.3137,-0.3128,-0.314,-0.314,-0.3146,-0.3132,-0.3132,-0.3132,-0.3132,-0.3186,-0.3187,0,0,0,0,0,0,-0.3025,-0.3033,-0.3098,-0.3102,-0.3062,-0.3105,-0.3111,-0.3121,-0.3129,-0.313,-0.3138,-0.3138,-0.314,-0.314,-0.3139,-0.3149,-0.3132,-0.3132,-0.3132,-0.3184,-0.3186,-0.3187,0,0,0,0,0,0,-0.3023,-0.303,-0.3096,-0.307,-0.3079,-0.3107,-0.3119,-0.3123,-0.3133,-0.3138,-0.3138,-0.3144,-0.314,-0.3139,-0.3154,-0.3149,-0.3132,-0.3132,-0.3183,-0.3185,-0.3187,-0.3174,0,0,0,0,0,0,-0.302,-0.3029,-0.3031,-0.307,-0.3081,-0.3114,-0.312,-0.3125,-0.3141,-0.3141,-0.3143,-0.3142,-0.3139,-0.3154,-0.3154,-0.3148,-0.3133,-0.3181,-0.3184,-0.3186,-0.3173,-0.3176,-0.3178,0,0,0,0,0,-0.3017,-0.3022,-0.3031,-0.3039,-0.3084,-0.3114,-0.312,-0.3136,-0.3142,-0.3144,-0.316,-0.3141,-0.3169,-0.3155,-0.3155,-0.3149,-0.318,-0.3183,-0.3186,-0.3172,-0.3175,-0.3178,0,0,0,0,0,0,-0.298,-0.3024,-0.3035,-0.3051,-0.3077,-0.3115,-0.3119,-0.3138,-0.3155,-0.3149,-0.3158,-0.3158,-0.3171,-0.3172,-0.3156,-0.3177,-0.3172,-0.3175,-0.3161,-0.3164,-0.3167,-0.3151,-0.3133,0,0,0,0,0,-0.2976,-0.299,-0.3032,-0.3042,-0.3054,-0.3088,-0.3102,-0.3114,-0.3138,-0.3144,-0.3154,-0.3167,-0.3186,-0.3183,-0.3197,-0.3204,-0.3157,-0.3204,-0.3207,-0.3208,-0.32,-0.3125,-0.3118,-0.3197,-0.3197,-0.3197,0,0,-0.2964,-0.2989,-0.2997,-0.3035,-0.3054,-0.3081,-0.3093,-0.3109,-0.313,-0.3139,-0.316,-0.3175,-0.3194,-0.3207,-0.3212,-0.3202,-0.3162,-0.3212,-0.3213,-0.3203,-0.3127,-0.3118,-0.3111,-0.3199,-0.3199,-0.3198,0,0,-0.2948,-0.297,-0.2977,-0.3006,-0.3037,-0.3063,-0.3069,-0.3107,-0.3116,-0.3143,-0.3163,-0.3171,-0.32,-0.3207,-0.3217,-0.3241,-0.3184,-0.3256,-0.3241,-0.3169,-0.316,-0.3152,-0.3072,-0.3057,-0.3248,-0.3248,-0.3248,0,-0.2927,-0.2955,-0.2981,-0.3003,-0.3031,-0.3058,-0.3081,-0.31,-0.3138,-0.314,-0.3143,-0.3177,-0.3194,-0.3205,-0.3229,-0.324,-0.319,-0.3222,-0.3166,-0.3157,-0.3149,-0.3069,-0.3052,-0.3247,-0.3247,-0.3247,-0.3247,0,-0.2923,-0.2954,-0.296,-0.3004,-0.3032,-0.3053,-0.3094,-0.3107,-0.3123,-0.3137,-0.3141,-0.3159,-0.3173,-0.3188,-0.3222,-0.3192,-0.3172,-0.3178,-0.3144,-0.3139,-0.3056,-0.3039,-0.3247,-0.3247,-0.3247,-0.3247,0,0,-0.2853,-0.2941,-0.2943,-0.2979,-0.3039,-0.3063,-0.309,-0.3118,-0.3129,-0.313,-0.3122,-0.3161,-0.3153,-0.3167,-0.3189,-0.3141,-0.3054,-0.3143,-0.314,-0.3039,-0.2879,-0.2812,-0.2786,-0.3042,-0.304,-0.3037,-0.2839,0,-0.284,-0.2897,-0.2939,-0.2993,-0.3034,-0.3075,-0.3105,-0.3128,-0.3141,-0.3137,-0.3114,-0.3119,-0.315,-0.3152,-0.3109,-0.3088,-0.3011,-0.3107,-0.2922,-0.2916,-0.2835,-0.2764,-0.2672,-0.2483,-0.2822,-0.2819,-0.2817,0,-0.2815,-0.2871,-0.2931,-0.3016,-0.3031,-0.306,-0.3106,-0.3134,-0.3133,-0.3136,-0.311,-0.3096,-0.3057,-0.3067,-0.2953,-0.3013,-0.2944,-0.2898,-0.2889,-0.2816,-0.2816,-0.2549,-0.2438,-0.2433,-0.279,-0.2792,-0.2794,0,-0.2777,-0.2855,-0.2911,-0.2945,-0.3043,-0.3057,-0.3089,-0.312,-0.3127,-0.3117,-0.3092,-0.3049,-0.2999,-0.2919,-0.2848,-0.2891,-0.2685,-0.2724,-0.2576,-0.257,-0.2449,-0.2437,-0.2286,-0.2588,-0.2588,-0.2589,-0.2589,0,-0.2771,-0.2806,-0.2896,-0.2941,-0.2972,-0.3041,-0.3057,-0.3088,-0.3096,-0.3071,-0.3077,-0.3016,-0.2955,-0.2843,-0.2794,-0.2618,-0.2624,-0.2539,-0.2501,-0.2445,-0.2436,-0.2395,-0.2433,-0.2581,-0.2583,-0.2584,-0.2585,0,-0.2732,-0.2802,-0.2858,-0.295,-0.2967,-0.2985,-0.3025,-0.3034,-0.3057,-0.3014,-0.2995,-0.2947,-0.2799,-0.2713,-0.256,-0.2517,-0.2328,-0.2312,-0.2249,-0.2208,-0.2094,-0.2136,-0.1925,-0.1871,-0.2112,-0.2109,-0.2107,0,-0.2717,-0.2753,-0.284,-0.2859,-0.2897,-0.2929,-0.2947,-0.3,-0.2997,-0.2954,-0.291,-0.2769,-0.2631,-0.2391,-0.2284,-0.2115,-0.2141,-0.1955,-0.2025,-0.2036,-0.2055,-0.2095,-0.2071,-0.1854,-0.1849,-0.1846,-0.1843,0,-0.2667,-0.2694,-0.2744,-0.2788,-0.2814,-0.2825,-0.2843,-0.283,-0.2863,-0.2816,-0.269,-0.2568,-0.2355,-0.2129,-0.195,-0.1866,-0.1922,-0.1875,-0.1885,-0.1826,-0.1855,-0.1803,-0.205,-0.181,-0.1814,-0.1816,-0.1818,-0.1819,-0.2576,-0.2589,-0.2638,-0.2659,-0.2691,-0.2657,-0.2593,-0.2621,-0.2556,-0.2416,-0.2434,-0.2218,-0.2059,-0.1782,-0.1693,-0.1559,-0.1641,-0.1536,-0.1577,-0.1609,-0.1582,-0.1759,-0.1494,-0.1495,-0.1497,-0.1498,-0.1499,0,-0.2412,-0.2449,-0.2491,-0.2499,-0.2454,-0.2509,-0.2465,-0.2358,-0.2217,-0.2163,-0.2018,-0.1836,-0.1612,-0.1509,-0.1375,-0.1304,-0.1299,-0.1286,-0.1332,-0.1315,-0.1441,-0.1459,-0.1175,-0.1175,-0.1175,-0.1175,-0.1175,-0.1175,-0.2324,-0.229,-0.2325,-0.2212,-0.2215,-0.2048,-0.196,-0.1858,-0.1774,-0.1574,-0.1482,-0.1462,-0.1412,-0.1408,-0.127,-0.1199,-0.1197,-0.1137,-0.1184,-0.1317,-0.1346,-0.1373,-0.1398,-0.1105,-0.1105,-0.1009,-0.1008,-0.1008]},{"header":{"parameterUnit":"m.s-1","parameterCategory":2,"la1":30.2991,"la2":30.254,"lo1":-89.0895,"lo2":-89.0444,"dy":0.0017,"dx":0.0017,"nx":28,"ny":28,"refTime":"2024-03-27T09:00:00:Z","depth":"0","parameterNumber":3,"parameterNumberName":"V-component_of_CURRENTS"},"data":[0,0,0,0,0,0,0,0,0,0,0,0,0,0,0,0,0,0,0,0,0,0,0,0,0,0,0,0,0,0,0,0,0,0,0,0,0,0,0,0,0,0,0,0,0,0,0,0,0,0,0,0,0,0,0,0,0,0,-0.0668,-0.0665,0,-0.0452,-0.0449,-0.0447,-0.0315,-0.0314,-0.0314,-0.0313,-0.0196,-0.0194,-0.0191,0,0,0,0,0,0,0,0,0,0,0,0,0,-0.0805,-0.0805,-0.0668,-0.0665,-0.0663,-0.0452,-0.0449,-0.0446,-0.0315,-0.0314,-0.0314,-0.0313,-0.0197,-0.0194,-0.0191,0,0,0,0,0,0,0,0,0,0,0,0,0,-0.0683,-0.0804,-0.0668,-0.0572,-0.0562,-0.0453,-0.0449,-0.0445,-0.0315,-0.0314,-0.0313,-0.0313,-0.0198,-0.0194,-0.019,-0.0185,0,0,-0.0179,-0.0177,0,0,0,0,0,0,0,0,-0.069,-0.0678,-0.0589,-0.0579,-0.0567,-0.041,-0.0454,-0.0363,-0.0315,-0.0408,-0.0313,-0.0312,-0.0278,-0.0267,-0.0226,-0.0179,-0.0174,-0.0178,-0.0176,-0.0174,-0.0173,0,0,0,0,0,0,0,-0.0699,-0.0686,-0.0582,-0.0586,-0.0573,-0.0485,-0.0468,-0.0435,-0.0352,-0.04,-0.039,-0.0367,-0.0272,-0.023,-0.0223,-0.0172,-0.0178,-0.0175,-0.0173,-0.0171,-0.0074,-0.0073,0,0,0,0,0,0,-0.0737,-0.0695,-0.0588,-0.0575,-0.0628,-0.0484,-0.0465,-0.0461,-0.035,-0.0331,-0.0368,-0.0362,-0.0237,-0.0228,-0.0219,-0.0184,-0.0174,-0.0171,-0.0169,-0.0074,-0.0074,-0.0073,0,0,0,0,0,0,-0.0741,-0.073,-0.0597,-0.0629,-0.0606,-0.0484,-0.0479,-0.0457,-0.0413,-0.0325,-0.0308,-0.0348,-0.0236,-0.0224,-0.018,-0.018,-0.0169,-0.0166,-0.0074,-0.0074,-0.0074,-0.0129,0,0,0,0,0,0,-0.0746,-0.0734,-0.0743,-0.0633,-0.0606,-0.054,-0.0479,-0.0453,-0.0401,-0.0391,-0.0303,-0.029,-0.0235,-0.0186,-0.0176,-0.0174,-0.0163,-0.0075,-0.0074,-0.0074,-0.0128,-0.0131,-0.0133,0,0,0,0,0,-0.0752,-0.0758,-0.0745,-0.0732,-0.0624,-0.0541,-0.0519,-0.0427,-0.0402,-0.0385,-0.0319,-0.0293,-0.0175,-0.0182,-0.0171,-0.0168,-0.0075,-0.0074,-0.0074,-0.0126,-0.013,-0.0133,0,0,0,0,0,0,-0.0801,-0.0742,-0.0726,-0.071,-0.0641,-0.0519,-0.0487,-0.044,-0.0371,-0.0368,-0.029,-0.0272,-0.0234,-0.0196,-0.0206,-0.0137,-0.0121,-0.0118,-0.0165,-0.0168,-0.0171,-0.0167,-0.0159,0,0,0,0,0,-0.0828,-0.0828,-0.0747,-0.0733,-0.0706,-0.0608,-0.0563,-0.051,-0.0433,-0.04,-0.0335,-0.0273,-0.0222,-0.0193,-0.0144,-0.0112,-0.0062,-0.0102,-0.0105,-0.0108,-0.0095,-0.0003,0.0004,-0.0071,-0.0071,-0.0071,0,0,-0.0837,-0.0808,-0.0803,-0.0746,-0.0683,-0.0639,-0.0578,-0.0521,-0.0482,-0.0405,-0.0339,-0.0288,-0.0217,-0.0169,-0.0149,-0.0137,-0.0067,-0.0107,-0.011,-0.0095,-0.0001,0.0006,0.0013,-0.0071,-0.0071,-0.0071,0,0,-0.0852,-0.0839,-0.0842,-0.0794,-0.0725,-0.0667,-0.0662,-0.0559,-0.0514,-0.0457,-0.0388,-0.0332,-0.0256,-0.0188,-0.015,-0.0143,-0.009,-0.0138,-0.0142,-0.0053,-0.0046,-0.0038,0.0001,0.0012,-0.0134,-0.0134,-0.0134,0,-0.0863,-0.0865,-0.0824,-0.0802,-0.0758,-0.069,-0.0662,-0.0606,-0.0501,-0.0459,-0.0449,-0.0297,-0.0257,-0.0168,-0.0165,-0.0149,-0.0102,-0.0138,-0.0056,-0.0048,-0.0039,-0.0,0.0013,-0.0137,-0.0136,-0.0136,-0.0136,0,-0.087,-0.0869,-0.0858,-0.0823,-0.0772,-0.0739,-0.0662,-0.0622,-0.0575,-0.0501,-0.0413,-0.0335,-0.0235,-0.0225,-0.0196,-0.0115,-0.0105,-0.0077,-0.005,-0.0035,0.0005,0.0019,-0.014,-0.0139,-0.0139,-0.0138,0,0,-0.089,-0.0875,-0.087,-0.0864,-0.0785,-0.0743,-0.0694,-0.0614,-0.0564,-0.0482,-0.0388,-0.0317,-0.0259,-0.0212,-0.016,-0.0092,-0.0024,-0.0067,-0.0061,-0.0033,0.0146,0.0111,0.0123,0.0027,0.003,0.0032,0.0137,0,-0.0905,-0.0915,-0.0878,-0.0851,-0.0843,-0.0762,-0.0711,-0.063,-0.0553,-0.0449,-0.0357,-0.0259,-0.0258,-0.0205,-0.0138,-0.0033,0.0019,-0.0057,0.0133,0.0138,0.0102,0.0141,0.0158,0.0251,0.0152,0.0154,0.0156,0,-0.0915,-0.0928,-0.0933,-0.0888,-0.0868,-0.0835,-0.0736,-0.0675,-0.0528,-0.0462,-0.0344,-0.0246,-0.0126,-0.0128,0.0045,0.0,0.006,0.0124,0.0131,0.0135,0.0132,0.0229,0.0282,0.0399,0.018,0.0178,0.0176,0,-0.0973,-0.0951,-0.0973,-0.0952,-0.089,-0.0866,-0.0816,-0.0687,-0.0616,-0.0454,-0.0365,-0.0211,-0.0111,0.0001,0.0108,0.0097,0.0292,0.0301,0.0319,0.0315,0.0386,0.0384,0.0578,0.0416,0.0415,0.0415,0.0415,0,-0.1011,-0.1017,-0.1013,-0.1021,-0.1012,-0.0927,-0.087,-0.0795,-0.0642,-0.0528,-0.0376,-0.0254,-0.0069,0.0069,0.0142,0.0269,0.0319,0.0331,0.0357,0.036,0.0355,0.0505,0.0544,0.0419,0.0418,0.0417,0.0417,0,-0.1071,-0.1074,-0.1091,-0.1062,-0.105,-0.104,-0.0932,-0.0864,-0.0726,-0.0563,-0.05,-0.0262,-0.009,0.006,0.0255,0.0313,0.0498,0.0453,0.0411,0.043,0.0547,0.0579,0.0777,0.084,0.0516,0.0516,0.0516,0,-0.1109,-0.1138,-0.1141,-0.1155,-0.1151,-0.112,-0.1073,-0.0936,-0.0838,-0.057,-0.0478,-0.0261,-0.0116,0.0135,0.0286,0.0424,0.0509,0.052,0.0501,0.057,0.0629,0.0644,0.0685,0.0565,0.0566,0.0566,0.0566,0,-0.1176,-0.1183,-0.1202,-0.1243,-0.123,-0.1181,-0.1102,-0.1033,-0.0818,-0.0682,-0.0468,-0.0337,-0.0074,0.0117,0.0297,0.0388,0.0606,0.0528,0.0657,0.0729,0.0711,0.0777,0.0438,0.0569,0.0569,0.0569,0.0569,0.0569,-0.1211,-0.1254,-0.1288,-0.1311,-0.1285,-0.121,-0.1151,-0.1043,-0.0898,-0.0655,-0.0529,-0.0334,-0.0018,0.0242,0.0355,0.0637,0.0613,0.0728,0.0773,0.079,0.083,0.0452,0.0571,0.0571,0.057,0.057,0.057,0,-0.1251,-0.1303,-0.1344,-0.1345,-0.1297,-0.1268,-0.1127,-0.1039,-0.0883,-0.0714,-0.0562,-0.0212,0.0061,0.0362,0.0744,0.0889,0.094,0.0982,0.1056,0.1095,0.0833,0.0813,0.0921,0.0921,0.0921,0.0921,0.0921,0.0921,-0.1275,-0.1348,-0.1373,-0.1342,-0.1311,-0.1186,-0.109,-0.0992,-0.086,-0.062,-0.0414,-0.0265,0.0212,0.081,0.1167,0.1198,0.1344,0.1312,0.1391,0.1249,0.123,0.1212,0.1207,0.1396,0.1396,0.1655,0.1658,0.166]}],[{"header":{"parameterUnit":"m.s-1","parameterCategory":2,"la1":30.2991,"la2":30.254,"lo1":-89.0895,"lo2":-89.0444,"dy":0.0017,"dx":0.0017,"nx":28,"ny":28,"refTime":"2024-03-27T09:00:00:Z","depth":"2","parameterNumber":2,"parameterNumberName":"U-component_of_CURRENTS"},"data":[0,0,0,0,0,0,0,0,0,0,0,0,0,0,0,0,0,0,0,0,0,0,0,0,0,0,0,0,0,0,0,0,0,0,0,0,0,0,0,0,0,0,0,0,0,0,0,0,0,0,0,0,0,0,0,0,0,0,-0.2665,-0.2666,0,-0.2735,-0.2735,-0.2736,-0.2724,-0.2724,-0.2723,-0.2722,-0.2751,-0.2753,-0.2754,0,0,0,0,0,0,0,0,0,0,0,0,0,-0.2566,-0.2567,-0.2665,-0.2666,-0.2668,-0.2735,-0.2735,-0.2736,-0.2724,-0.2723,-0.2723,-0.2722,-0.2751,-0.2752,-0.2754,0,0,0,0,0,0,0,0,0,0,0,0,0,-0.2615,-0.2568,-0.2665,-0.2674,-0.2676,-0.2735,-0.2735,-0.2736,-0.2725,-0.2723,-0.2722,-0.2721,-0.275,-0.2752,-0.2754,-0.279,0,0,-0.2761,-0.2762,0,0,0,0,0,0,0,0,-0.2612,-0.2618,-0.2671,-0.2673,-0.2676,-0.2724,-0.2712,-0.2754,-0.2725,-0.2701,-0.2722,-0.2721,-0.2743,-0.2745,-0.2754,-0.2792,-0.2793,-0.2761,-0.2763,-0.2764,-0.2764,0,0,0,0,0,0,0,-0.2608,-0.2615,-0.2687,-0.2673,-0.2676,-0.269,-0.2695,-0.2719,-0.2722,-0.2703,-0.2703,-0.272,-0.2743,-0.2752,-0.2755,-0.2793,-0.2761,-0.2763,-0.2765,-0.2765,-0.288,-0.2882,0,0,0,0,0,0,-0.2609,-0.2612,-0.2685,-0.269,-0.2646,-0.2693,-0.2698,-0.2706,-0.2723,-0.2726,-0.2721,-0.2719,-0.2749,-0.2752,-0.2756,-0.2798,-0.2764,-0.2766,-0.2767,-0.2879,-0.2881,-0.2883,0,0,0,0,0,0,-0.2607,-0.2615,-0.2683,-0.2657,-0.2667,-0.2696,-0.2705,-0.2708,-0.2727,-0.2738,-0.2739,-0.2738,-0.2748,-0.2753,-0.2796,-0.2798,-0.2767,-0.2769,-0.2877,-0.2879,-0.2882,-0.2882,0,0,0,0,0,0,-0.2603,-0.2613,-0.2624,-0.2657,-0.2669,-0.2711,-0.2706,-0.271,-0.2741,-0.2739,-0.2754,-0.2754,-0.2748,-0.2793,-0.2798,-0.2801,-0.277,-0.2874,-0.2878,-0.2881,-0.288,-0.2885,-0.2888,0,0,0,0,0,-0.2599,-0.2612,-0.2624,-0.2633,-0.268,-0.2712,-0.2718,-0.2732,-0.2743,-0.2746,-0.2774,-0.2754,-0.2816,-0.2797,-0.2802,-0.2805,-0.2873,-0.2877,-0.2881,-0.2878,-0.2884,-0.2888,0,0,0,0,0,0,-0.2575,-0.2614,-0.2626,-0.2651,-0.2679,-0.2711,-0.2723,-0.2746,-0.2772,-0.2774,-0.2785,-0.2788,-0.2819,-0.283,-0.2808,-0.2852,-0.2839,-0.2844,-0.2835,-0.284,-0.2844,-0.2849,-0.2772,0,0,0,0,0,-0.2578,-0.2595,-0.2634,-0.2654,-0.2666,-0.2702,-0.2721,-0.2734,-0.2765,-0.2775,-0.2791,-0.2816,-0.2841,-0.2855,-0.287,-0.2908,-0.2862,-0.2915,-0.2919,-0.2922,-0.2933,-0.2854,-0.285,-0.2896,-0.2896,-0.2895,0,0,-0.2576,-0.2601,-0.2611,-0.2651,-0.2671,-0.27,-0.2708,-0.2736,-0.2765,-0.2776,-0.2815,-0.2829,-0.2856,-0.2884,-0.2899,-0.2893,-0.2885,-0.2927,-0.2929,-0.2939,-0.2857,-0.2852,-0.2847,-0.2898,-0.2898,-0.2897,0,0,-0.2573,-0.2598,-0.2607,-0.2637,-0.2677,-0.2702,-0.2716,-0.2754,-0.2769,-0.2814,-0.283,-0.2852,-0.2895,-0.2907,-0.2923,-0.2969,-0.2906,-0.298,-0.3005,-0.2927,-0.2921,-0.2916,-0.2836,-0.2823,-0.2984,-0.2984,-0.2984,0,-0.2569,-0.2588,-0.2616,-0.2639,-0.2672,-0.2707,-0.2734,-0.2761,-0.2812,-0.2829,-0.2821,-0.2879,-0.2899,-0.2937,-0.2965,-0.2972,-0.2921,-0.2976,-0.2927,-0.292,-0.2914,-0.2834,-0.2819,-0.2985,-0.2985,-0.2985,-0.2985,0,-0.2568,-0.2597,-0.2605,-0.2648,-0.269,-0.2713,-0.2765,-0.2791,-0.2817,-0.2843,-0.2872,-0.2892,-0.2926,-0.2936,-0.2975,-0.2968,-0.2942,-0.2929,-0.2899,-0.2909,-0.2825,-0.2809,-0.2985,-0.2985,-0.2985,-0.2985,0,0,-0.2516,-0.2587,-0.2588,-0.2627,-0.2697,-0.2733,-0.2779,-0.2826,-0.2866,-0.2873,-0.2893,-0.2944,-0.2951,-0.2973,-0.2999,-0.2958,-0.288,-0.2947,-0.2943,-0.2843,-0.2699,-0.2623,-0.2599,-0.2848,-0.2846,-0.2844,-0.2649,0,-0.25,-0.2542,-0.2589,-0.2653,-0.269,-0.275,-0.2806,-0.2862,-0.2894,-0.2917,-0.2909,-0.2935,-0.2966,-0.2979,-0.2948,-0.2911,-0.2845,-0.2934,-0.2729,-0.2723,-0.2633,-0.2581,-0.2434,-0.2244,-0.2634,-0.2632,-0.263,0,-0.2478,-0.2518,-0.2573,-0.268,-0.2701,-0.2748,-0.2842,-0.29,-0.2944,-0.2963,-0.2967,-0.296,-0.2946,-0.2939,-0.2833,-0.2888,-0.2806,-0.2746,-0.2736,-0.2658,-0.2619,-0.2305,-0.2202,-0.2604,-0.2606,-0.2608,-0.261,0,-0.2442,-0.251,-0.2558,-0.2594,-0.2717,-0.2751,-0.2811,-0.29,-0.2944,-0.2975,-0.2962,-0.2956,-0.2905,-0.2825,-0.2735,-0.2774,-0.2564,-0.2584,-0.242,-0.2413,-0.2246,-0.2228,-0.2454,-0.2454,-0.2455,-0.2455,-0.2456,0,-0.2425,-0.2462,-0.2541,-0.2581,-0.2647,-0.2746,-0.2822,-0.2883,-0.2939,-0.2939,-0.2979,-0.2913,-0.2867,-0.2749,-0.2692,-0.2502,-0.251,-0.2405,-0.2349,-0.2244,-0.2229,-0.2526,-0.2537,-0.2448,-0.2449,-0.2451,-0.2452,0,-0.2397,-0.2446,-0.2504,-0.2605,-0.2643,-0.2693,-0.2803,-0.2843,-0.2913,-0.289,-0.2874,-0.284,-0.2683,-0.2615,-0.2447,-0.2402,-0.2258,-0.2177,-0.2064,-0.1999,-0.2173,-0.2187,-0.198,-0.1975,-0.1972,-0.1968,-0.1966,0,-0.2388,-0.2419,-0.2506,-0.2535,-0.2577,-0.2659,-0.2714,-0.2817,-0.2826,-0.2801,-0.2739,-0.2609,-0.2455,-0.2228,-0.2127,-0.197,-0.2065,-0.1758,-0.1818,-0.2153,-0.212,-0.214,-0.2159,-0.1585,-0.1579,-0.1575,-0.1571,0,-0.2356,-0.2378,-0.241,-0.2467,-0.2512,-0.2565,-0.2612,-0.2587,-0.2645,-0.2583,-0.2408,-0.2279,-0.2111,-0.1876,-0.1747,-0.1651,-0.1796,-0.1661,-0.1974,-0.1755,-0.1772,-0.1744,-0.1775,-0.1531,-0.1535,-0.1538,-0.154,-0.1541,-0.2291,-0.2284,-0.2307,-0.2345,-0.2397,-0.2365,-0.2304,-0.2298,-0.2202,-0.2031,-0.2051,-0.1837,-0.1796,-0.1506,-0.1384,-0.1338,-0.147,-0.1424,-0.1441,-0.1462,-0.1478,-0.149,-0.1198,-0.12,-0.1202,-0.1203,-0.1205,0,-0.2146,-0.2149,-0.2188,-0.2169,-0.2116,-0.223,-0.2161,-0.2018,-0.1764,-0.1737,-0.1575,-0.1333,-0.1177,-0.1176,-0.1045,-0.1011,-0.1034,-0.0965,-0.1009,-0.1048,-0.1083,-0.1085,-0.0697,-0.0696,-0.0695,-0.0693,0,0,-0.2061,-0.1992,-0.2002,-0.1853,-0.1863,-0.1709,-0.1603,-0.1434,-0.1347,-0.1116,-0.1058,-0.112,-0.1149,-0.0928,-0.0863,-0.0774,-0.091,-0.0726,-0.1132,-0.1225,-0.1259,-0.134,-0.1384,0,0,0,0,0]},{"header":{"parameterUnit":"m.s-1","parameterCategory":2,"la1":30.2991,"la2":30.254,"lo1":-89.0895,"lo2":-89.0444,"dy":0.0017,"dx":0.0017,"nx":28,"ny":28,"refTime":"2024-03-27T09:00:00:Z","depth":"2","parameterNumber":3,"parameterNumberName":"V-component_of_CURRENTS"},"data":[0,0,0,0,0,0,0,0,0,0,0,0,0,0,0,0,0,0,0,0,0,0,0,0,0,0,0,0,0,0,0,0,0,0,0,0,0,0,0,0,0,0,0,0,0,0,0,0,0,0,0,0,0,0,0,0,0,0,-0.0469,-0.0467,0,-0.028,-0.0277,-0.0275,-0.0155,-0.0155,-0.0154,-0.0154,-0.0054,-0.0052,-0.005,0,0,0,0,0,0,0,0,0,0,0,0,0,-0.0579,-0.0578,-0.0469,-0.0467,-0.0465,-0.028,-0.0277,-0.0275,-0.0155,-0.0155,-0.0154,-0.0154,-0.0054,-0.0052,-0.0049,0,0,0,0,0,0,0,0,0,0,0,0,0,-0.0473,-0.0578,-0.047,-0.0384,-0.0375,-0.0281,-0.0277,-0.0274,-0.0156,-0.0155,-0.0154,-0.0153,-0.0055,-0.0052,-0.0049,-0.0045,0,0,-0.0039,-0.0038,0,0,0,0,0,0,0,0,-0.048,-0.0469,-0.0399,-0.039,-0.0379,-0.0242,-0.0279,-0.0202,-0.0156,-0.0237,-0.0154,-0.0153,-0.0127,-0.0117,-0.008,-0.0041,-0.0036,-0.0039,-0.0037,-0.0035,-0.0035,0,0,0,0,0,0,0,-0.0487,-0.0476,-0.0392,-0.0397,-0.0385,-0.0304,-0.029,-0.0263,-0.0189,-0.023,-0.0221,-0.0203,-0.0122,-0.0083,-0.0077,-0.0035,-0.0039,-0.0036,-0.0034,-0.0033,0.0046,0.0046,0,0,0,0,0,0,-0.0523,-0.0484,-0.0398,-0.0387,-0.043,-0.0304,-0.0287,-0.0285,-0.0187,-0.0171,-0.0204,-0.0198,-0.0089,-0.0081,-0.0073,-0.0052,-0.0036,-0.0032,-0.0031,0.0046,0.0046,0.0046,0,0,0,0,0,0,-0.0526,-0.0518,-0.0406,-0.0431,-0.0411,-0.0304,-0.0302,-0.0282,-0.0245,-0.0167,-0.0152,-0.0188,-0.0088,-0.0078,-0.0042,-0.0048,-0.0031,-0.0028,0.0046,0.0046,0.0046,-0.0017,0,0,0,0,0,0,-0.053,-0.0521,-0.0533,-0.0434,-0.0411,-0.0362,-0.0302,-0.0279,-0.0236,-0.0227,-0.0149,-0.0138,-0.0087,-0.0047,-0.0039,-0.0043,-0.0026,0.0045,0.0046,0.0046,-0.0015,-0.0019,-0.0022,0,0,0,0,0,-0.0535,-0.0546,-0.0535,-0.0524,-0.0432,-0.0363,-0.0344,-0.0262,-0.0237,-0.0226,-0.0165,-0.014,-0.004,-0.0045,-0.0035,-0.0038,0.0045,0.0046,0.0046,-0.0013,-0.0018,-0.0022,0,0,0,0,0,0,-0.0585,-0.0532,-0.0518,-0.051,-0.0453,-0.0344,-0.0321,-0.0276,-0.0216,-0.0213,-0.014,-0.0125,-0.0094,-0.006,-0.0068,-0.0013,0.0007,0.0009,-0.0042,-0.0046,-0.0049,-0.0042,-0.0023,0,0,0,0,0,-0.0612,-0.0615,-0.0543,-0.0539,-0.0516,-0.0428,-0.0391,-0.0343,-0.0275,-0.0246,-0.0188,-0.0131,-0.0084,-0.0062,-0.0017,0.0005,0.0055,0.0011,0.0007,0.0004,0.0017,0.0101,0.0106,0.0047,0.0047,0.0047,0,0,-0.0626,-0.0601,-0.0599,-0.0551,-0.0499,-0.0465,-0.0403,-0.0358,-0.0329,-0.0251,-0.02,-0.0148,-0.0082,-0.0043,-0.0028,-0.0017,0.004,0.0004,0.0001,0.0017,0.0102,0.0108,0.0113,0.0048,0.0047,0.0047,0,0,-0.0654,-0.0641,-0.0651,-0.061,-0.0555,-0.0501,-0.0499,-0.0407,-0.0368,-0.032,-0.0252,-0.0198,-0.0132,-0.007,-0.0035,-0.0036,0.0016,-0.0032,-0.0042,0.0037,0.0043,0.0049,0.0089,0.0099,-0.0032,-0.0032,-0.0032,0,-0.0672,-0.0681,-0.0639,-0.0628,-0.0595,-0.0527,-0.0512,-0.0463,-0.037,-0.0332,-0.0319,-0.0173,-0.0138,-0.0058,-0.0058,-0.0044,0.0001,-0.0036,0.0033,0.004,0.0047,0.0087,0.0099,-0.0035,-0.0035,-0.0035,-0.0034,0,-0.0697,-0.0702,-0.0698,-0.0673,-0.0633,-0.0612,-0.0542,-0.0509,-0.0461,-0.0389,-0.0305,-0.0228,-0.013,-0.0123,-0.0094,-0.0024,-0.0011,0.0015,0.0041,0.0049,0.009,0.0104,-0.004,-0.0039,-0.0038,-0.0037,0,0,-0.0727,-0.0723,-0.072,-0.0725,-0.0658,-0.0629,-0.0592,-0.0522,-0.0472,-0.0396,-0.0303,-0.0238,-0.0168,-0.0123,-0.0069,-0.0011,0.0048,0.0015,0.002,0.0049,0.0205,0.0173,0.0184,0.0092,0.0095,0.0097,0.0201,0,-0.0756,-0.0784,-0.0751,-0.0749,-0.0751,-0.0677,-0.0632,-0.056,-0.0481,-0.0375,-0.028,-0.0179,-0.0175,-0.0117,-0.0058,0.0045,0.0087,0.0016,0.0199,0.0203,0.0171,0.0201,0.0188,0.0278,0.0215,0.0217,0.0219,0,-0.078,-0.0802,-0.0826,-0.08,-0.0785,-0.0765,-0.0675,-0.0623,-0.047,-0.0396,-0.0273,-0.0166,-0.0051,-0.005,0.0112,0.0072,0.0124,0.0184,0.019,0.0199,0.0198,0.0268,0.0305,0.0242,0.024,0.0239,0.0237,0,-0.0839,-0.0842,-0.0878,-0.0865,-0.082,-0.0806,-0.0765,-0.0634,-0.0561,-0.0392,-0.0293,-0.0138,-0.0034,0.0069,0.017,0.0161,0.0342,0.0352,0.0365,0.0362,0.0408,0.0404,0.0451,0.0451,0.045,0.045,0.045,0,-0.0884,-0.0904,-0.0918,-0.0934,-0.0941,-0.0869,-0.0814,-0.0745,-0.0581,-0.0459,-0.0305,-0.0176,0.0004,0.0135,0.0204,0.0322,0.0368,0.0376,0.0401,0.0379,0.0373,0.0394,0.0386,0.0454,0.0453,0.0452,0.0452,0,-0.0939,-0.0952,-0.0988,-0.098,-0.0979,-0.0978,-0.0878,-0.0804,-0.0658,-0.0485,-0.042,-0.0183,-0.0019,0.0126,0.0307,0.0364,0.0476,0.049,0.0426,0.0441,0.0434,0.0421,0.0554,0.0554,0.0554,0.0554,0.0554,0,-0.0973,-0.1009,-0.1041,-0.1063,-0.1069,-0.105,-0.1004,-0.087,-0.0761,-0.0492,-0.0395,-0.0188,-0.0049,0.0188,0.0335,0.0464,0.0461,0.0528,0.0505,0.044,0.0452,0.0439,0.0427,0.0534,0.0534,0.0534,0.0534,0,-0.1034,-0.1047,-0.1076,-0.1134,-0.1133,-0.1093,-0.1019,-0.0939,-0.0721,-0.0612,-0.0418,-0.0299,-0.0029,0.0142,0.0325,0.0403,0.0513,0.0527,0.0533,0.0488,0.0425,0.0433,0.0422,0.0533,0.0533,0.0533,0.0533,0.0533,-0.1061,-0.1102,-0.1145,-0.1185,-0.117,-0.1096,-0.1032,-0.0935,-0.0812,-0.0572,-0.0478,-0.0295,-0.0074,0.018,0.0321,0.0484,0.0481,0.0539,0.0539,0.0539,0.0497,0.0435,0.0535,0.0535,0.0535,0.0535,0.0535,0,-0.1084,-0.1137,-0.1188,-0.1194,-0.1143,-0.1142,-0.0993,-0.0893,-0.0771,-0.0624,-0.0505,-0.0285,-0.0085,0.0141,0.0386,0.0512,0.0522,0.0543,0.0539,0.0539,0.054,0.0497,0.0536,0.0537,0.0537,0.0537,0,0,-0.11,-0.1166,-0.1196,-0.1155,-0.1134,-0.1007,-0.0911,-0.0825,-0.0694,-0.0585,-0.0473,-0.0316,-0.0057,0.011,0.0287,0.0425,0.0446,0.0438,0.0425,0.04,0.0399,0.0528,0.0461,0,0,0,0,0]}],[{"header":{"parameterUnit":"m.s-1","parameterCategory":2,"la1":30.2991,"la2":30.254,"lo1":-89.0895,"lo2":-89.0444,"dy":0.0017,"dx":0.0017,"nx":28,"ny":28,"refTime":"2024-03-27T09:00:00:Z","depth":"4","parameterNumber":2,"parameterNumberName":"U-component_of_CURRENTS"},"data":[0,0,0,0,0,0,0,0,0,0,0,0,0,0,0,0,0,0,0,0,0,0,0,0,0,0,0,0,0,0,0,0,0,0,0,0,0,0,0,0,0,0,0,0,0,0,0,0,0,0,0,0,0,0,0,0,0,0,-0.1216,-0.1216,0,-0.1326,-0.1327,-0.1329,-0.142,-0.142,-0.1421,-0.1421,-0.1491,-0.1493,-0.1495,0,0,0,0,0,0,0,0,0,0,0,0,0,-0.1157,-0.1158,-0.1216,-0.1216,-0.1217,-0.1325,-0.1327,-0.133,-0.142,-0.142,-0.1421,-0.1421,-0.1491,-0.1493,-0.1495,0,0,0,0,0,0,0,0,0,0,0,0,0,-0.1223,-0.1158,-0.1216,-0.127,-0.1275,-0.1325,-0.1328,-0.133,-0.142,-0.142,-0.1421,-0.1421,-0.149,-0.1493,-0.1495,-0.1502,0,0,-0.1503,-0.1504,0,0,0,0,0,0,0,0,-0.1219,-0.1226,-0.1261,-0.1266,-0.1272,-0.1353,-0.1332,-0.1383,-0.142,-0.1373,-0.1421,-0.1421,-0.1436,-0.1443,-0.1474,-0.1505,-0.1508,-0.1503,-0.1504,-0.1505,-0.1506,0,0,0,0,0,0,0,-0.1215,-0.1222,-0.1267,-0.1262,-0.1268,-0.1313,-0.1323,-0.1344,-0.1406,-0.1377,-0.1382,-0.1382,-0.144,-0.1472,-0.1476,-0.1509,-0.1503,-0.1505,-0.1506,-0.1507,-0.1631,-0.1632,0,0,0,0,0,0,-0.1182,-0.1218,-0.1263,-0.1269,-0.1238,-0.1313,-0.1324,-0.1333,-0.1407,-0.1417,-0.1382,-0.1386,-0.1467,-0.1473,-0.1479,-0.1569,-0.1505,-0.1508,-0.1509,-0.1629,-0.1631,-0.1633,0,0,0,0,0,0,-0.118,-0.1185,-0.1259,-0.124,-0.1251,-0.1312,-0.1322,-0.1334,-0.1408,-0.1409,-0.142,-0.1445,-0.1468,-0.1475,-0.1535,-0.1569,-0.1509,-0.1511,-0.1627,-0.163,-0.1632,-0.1699,0,0,0,0,0,0,-0.1178,-0.1184,-0.1215,-0.1237,-0.1251,-0.1303,-0.1321,-0.1336,-0.14,-0.1409,-0.1466,-0.1471,-0.1469,-0.1531,-0.1537,-0.1571,-0.1513,-0.1624,-0.1628,-0.1631,-0.1694,-0.1704,-0.1712,0,0,0,0,0,-0.1176,-0.1204,-0.1216,-0.1223,-0.1279,-0.1303,-0.1316,-0.1365,-0.1403,-0.1436,-0.1484,-0.1471,-0.1557,-0.1535,-0.1542,-0.1577,-0.1623,-0.1627,-0.1631,-0.1691,-0.1702,-0.1711,0,0,0,0,0,0,-0.1207,-0.1215,-0.123,-0.1264,-0.1287,-0.1316,-0.1356,-0.1392,-0.1461,-0.1482,-0.15,-0.1508,-0.1578,-0.1568,-0.1544,-0.1623,-0.1586,-0.1591,-0.1629,-0.1639,-0.1648,-0.1629,-0.1515,0,0,0,0,0,-0.1221,-0.1234,-0.1252,-0.1278,-0.1294,-0.1338,-0.1369,-0.1396,-0.1438,-0.1474,-0.1513,-0.1553,-0.1594,-0.161,-0.1642,-0.1682,-0.1643,-0.1707,-0.1716,-0.1723,-0.1713,-0.1706,-0.1712,-0.1646,-0.1646,-0.1646,0,0,-0.1224,-0.1241,-0.1244,-0.1284,-0.1312,-0.1331,-0.1361,-0.1406,-0.1442,-0.1465,-0.1552,-0.1595,-0.1616,-0.167,-0.1697,-0.1668,-0.1718,-0.1728,-0.1734,-0.172,-0.1711,-0.1717,-0.1722,-0.1649,-0.1649,-0.1648,0,0,-0.1222,-0.127,-0.1273,-0.13,-0.134,-0.136,-0.138,-0.1434,-0.149,-0.1555,-0.1595,-0.1658,-0.1712,-0.1738,-0.1753,-0.1825,-0.1776,-0.1843,-0.1857,-0.1852,-0.1856,-0.186,-0.1797,-0.1795,-0.1831,-0.1832,-0.1832,0,-0.1235,-0.1251,-0.1281,-0.1302,-0.1325,-0.1373,-0.139,-0.1447,-0.1519,-0.1567,-0.1584,-0.17,-0.1736,-0.1792,-0.1831,-0.1844,-0.1812,-0.1817,-0.1861,-0.1864,-0.1866,-0.1801,-0.1797,-0.1835,-0.1835,-0.1834,-0.1834,0,-0.122,-0.1259,-0.127,-0.13,-0.133,-0.136,-0.1411,-0.1483,-0.1551,-0.1595,-0.1695,-0.1747,-0.1808,-0.1839,-0.1864,-0.1914,-0.1875,-0.1884,-0.1829,-0.1876,-0.1805,-0.18,-0.1841,-0.1839,-0.1838,-0.1837,0,0,-0.118,-0.1244,-0.1257,-0.1279,-0.1342,-0.1357,-0.1433,-0.1504,-0.1555,-0.1645,-0.1714,-0.1812,-0.1854,-0.1876,-0.1917,-0.192,-0.193,-0.1918,-0.1916,-0.1843,-0.1875,-0.1784,-0.1769,-0.195,-0.1951,-0.1951,-0.1808,0,-0.1167,-0.1187,-0.124,-0.1276,-0.1282,-0.1374,-0.1428,-0.1505,-0.1576,-0.1661,-0.1747,-0.183,-0.1861,-0.1913,-0.1923,-0.195,-0.1924,-0.1964,-0.1849,-0.1844,-0.175,-0.1764,-0.1951,-0.1804,-0.1803,-0.1802,-0.1801,0,-0.1136,-0.1153,-0.1178,-0.1254,-0.1274,-0.1325,-0.1419,-0.1485,-0.1608,-0.1655,-0.1741,-0.1824,-0.1901,-0.1915,-0.1911,-0.1938,-0.1911,-0.1897,-0.1891,-0.1777,-0.1745,-0.1754,-0.1791,-0.1792,-0.1793,-0.1793,-0.1794,0,-0.1046,-0.1122,-0.1143,-0.1168,-0.125,-0.1326,-0.1403,-0.1502,-0.1561,-0.1687,-0.1713,-0.1806,-0.1826,-0.1861,-0.1874,-0.1905,-0.1819,-0.1851,-0.1714,-0.1704,-0.1796,-0.1794,-0.1809,-0.1809,-0.181,-0.181,-0.1811,0,-0.1002,-0.1027,-0.1124,-0.1133,-0.1174,-0.1284,-0.1338,-0.1429,-0.1553,-0.1519,-0.1724,-0.1679,-0.1814,-0.181,-0.1846,-0.1744,-0.1786,-0.17,-0.1669,-0.1825,-0.1828,-0.179,-0.179,-0.1805,-0.1806,-0.1807,-0.1808,0,-0.091,-0.0971,-0.0991,-0.1095,-0.1127,-0.1177,-0.1302,-0.1296,-0.1461,-0.1428,-0.1487,-0.1589,-0.1559,-0.1668,-0.1654,-0.1635,-0.1618,-0.1559,-0.1674,-0.1654,-0.1506,-0.1512,-0.1402,-0.1398,-0.1394,-0.1391,-0.1389,0,-0.0871,-0.0864,-0.0927,-0.0929,-0.1,-0.1068,-0.1042,-0.1208,-0.1163,-0.128,-0.1201,-0.1303,-0.1317,-0.1266,-0.1378,-0.1446,-0.1446,-0.1412,-0.1519,-0.1487,-0.1468,-0.1479,-0.1489,-0.1383,-0.1382,-0.1381,-0.138,0,-0.0779,-0.0809,-0.082,-0.0798,-0.0797,-0.0748,-0.0758,-0.0759,-0.0835,-0.0955,-0.0939,-0.1068,-0.1,-0.1114,-0.1181,-0.1223,-0.1458,-0.1375,-0.1384,-0.1484,-0.1463,-0.145,-0.1464,-0.1368,-0.137,-0.1371,-0.1371,0,-0.0702,-0.069,-0.0686,-0.0668,-0.0616,-0.0493,-0.0527,-0.0478,-0.0521,-0.0685,-0.0596,-0.0767,-0.0844,-0.098,-0.1022,-0.1111,-0.1131,-0.1137,-0.1159,-0.1175,-0.1193,-0.1138,-0.0896,0,0,0,0,0,-0.0617,-0.0586,-0.0544,-0.0502,-0.0432,-0.0398,-0.0319,-0.0347,-0.0386,-0.0322,-0.0527,-0.0502,-0.0678,-0.0786,-0.0849,-0.0935,-0.1129,-0.1002,-0.1143,-0.1299,-0.1313,-0.1372,0,0,0,0,0,0,-0.058,-0.0533,-0.0496,-0.0338,-0.0295,-0.0168,-0.0124,-0.0153,-0.016,-0.0266,-0.0375,-0.0471,-0.0662,-0.0658,-0.0847,-0.0878,-0.0956,-0.1117,-0.1116,-0.1291,-0.1304,-0.1316,-0.1381,0,0,0,0,0]},{"header":{"parameterUnit":"m.s-1","parameterCategory":2,"la1":30.2991,"la2":30.254,"lo1":-89.0895,"lo2":-89.0444,"dy":0.0017,"dx":0.0017,"nx":28,"ny":28,"refTime":"2024-03-27T09:00:00:Z","depth":"4","parameterNumber":3,"parameterNumberName":"V-component_of_CURRENTS"},"data":[0,0,0,0,0,0,0,0,0,0,0,0,0,0,0,0,0,0,0,0,0,0,0,0,0,0,0,0,0,0,0,0,0,0,0,0,0,0,0,0,0,0,0,0,0,0,0,0,0,0,0,0,0,0,0,0,0,0,-0.0277,-0.0276,0,-0.0218,-0.0217,-0.0216,-0.0169,-0.0168,-0.0168,-0.0168,-0.013,-0.0129,-0.0129,0,0,0,0,0,0,0,0,0,0,0,0,0,-0.0294,-0.0294,-0.0277,-0.0276,-0.0276,-0.0218,-0.0217,-0.0216,-0.0169,-0.0168,-0.0168,-0.0167,-0.013,-0.0129,-0.0129,0,0,0,0,0,0,0,0,0,0,0,0,0,-0.0266,-0.0294,-0.0277,-0.0245,-0.0242,-0.0218,-0.0217,-0.0216,-0.0169,-0.0168,-0.0168,-0.0167,-0.013,-0.0129,-0.0128,-0.0137,0,0,-0.0126,-0.0125,0,0,0,0,0,0,0,0,-0.0267,-0.0265,-0.0251,-0.0247,-0.0244,-0.02,-0.0209,-0.0191,-0.0169,-0.0196,-0.0168,-0.0167,-0.0156,-0.0153,-0.0143,-0.0135,-0.0133,-0.0126,-0.0125,-0.0125,-0.0125,0,0,0,0,0,0,0,-0.0269,-0.0267,-0.0253,-0.025,-0.0246,-0.0215,-0.0211,-0.0205,-0.0181,-0.0194,-0.0191,-0.0185,-0.0154,-0.0144,-0.0141,-0.0133,-0.0126,-0.0125,-0.0124,-0.0124,-0.0131,-0.0132,0,0,0,0,0,0,-0.0281,-0.0269,-0.0255,-0.0251,-0.0254,-0.0215,-0.0211,-0.0215,-0.018,-0.0174,-0.0185,-0.0183,-0.0145,-0.0143,-0.014,-0.0155,-0.0125,-0.0124,-0.0123,-0.0131,-0.0132,-0.0132,0,0,0,0,0,0,-0.0282,-0.0281,-0.0258,-0.0258,-0.0253,-0.0216,-0.0221,-0.0214,-0.0206,-0.0174,-0.0168,-0.0185,-0.0145,-0.0141,-0.0135,-0.0153,-0.0124,-0.0123,-0.013,-0.0131,-0.0132,-0.018,0,0,0,0,0,0,-0.0283,-0.0282,-0.0295,-0.026,-0.0254,-0.0259,-0.0221,-0.0213,-0.0204,-0.02,-0.0172,-0.0167,-0.0144,-0.0136,-0.0134,-0.0151,-0.0122,-0.0129,-0.013,-0.0132,-0.0177,-0.0182,-0.0187,0,0,0,0,0,-0.0284,-0.0301,-0.0296,-0.0294,-0.0272,-0.026,-0.0255,-0.0225,-0.0205,-0.0213,-0.0183,-0.0168,-0.0143,-0.0136,-0.0133,-0.015,-0.0128,-0.013,-0.0131,-0.0175,-0.0181,-0.0186,0,0,0,0,0,0,-0.0312,-0.0297,-0.0291,-0.0302,-0.0291,-0.0252,-0.0254,-0.0233,-0.0215,-0.0213,-0.0175,-0.0169,-0.0165,-0.0156,-0.0148,-0.0157,-0.0135,-0.0136,-0.0169,-0.0175,-0.0179,-0.0202,-0.0121,0,0,0,0,0,-0.0328,-0.034,-0.0317,-0.033,-0.0325,-0.0293,-0.0285,-0.027,-0.0245,-0.0236,-0.021,-0.0188,-0.0171,-0.0171,-0.0152,-0.0164,-0.0129,-0.0175,-0.0179,-0.0183,-0.02,-0.0154,-0.0155,-0.0138,-0.0138,-0.0138,0,0,-0.034,-0.0336,-0.0341,-0.0338,-0.0323,-0.0335,-0.0287,-0.0286,-0.0296,-0.0238,-0.0239,-0.02,-0.0174,-0.0175,-0.0175,-0.0171,-0.0166,-0.0185,-0.0189,-0.0204,-0.0155,-0.0157,-0.0158,-0.0139,-0.0139,-0.0138,0,0,-0.0373,-0.037,-0.0391,-0.0388,-0.0381,-0.037,-0.0375,-0.0345,-0.0331,-0.0327,-0.0282,-0.0261,-0.0237,-0.0222,-0.0211,-0.0238,-0.0184,-0.0228,-0.028,-0.0235,-0.0235,-0.0236,-0.0174,-0.0169,-0.024,-0.024,-0.0241,0,-0.039,-0.0417,-0.0396,-0.0414,-0.0422,-0.0393,-0.042,-0.0407,-0.0378,-0.0373,-0.0339,-0.0296,-0.0265,-0.0273,-0.0267,-0.0252,-0.0201,-0.0259,-0.024,-0.024,-0.0239,-0.0176,-0.0169,-0.0243,-0.0243,-0.0242,-0.0242,0,-0.0433,-0.0459,-0.047,-0.0494,-0.0502,-0.052,-0.0506,-0.0515,-0.049,-0.0461,-0.0448,-0.0395,-0.0371,-0.0353,-0.0311,-0.0304,-0.0258,-0.024,-0.0224,-0.0244,-0.0176,-0.0168,-0.0247,-0.0246,-0.0245,-0.0244,0,0,-0.0453,-0.0496,-0.0502,-0.0534,-0.0547,-0.0563,-0.0594,-0.0607,-0.0632,-0.0581,-0.0586,-0.0534,-0.0484,-0.0469,-0.0418,-0.0377,-0.0308,-0.0304,-0.03,-0.0241,-0.0179,-0.0166,-0.0156,-0.027,-0.027,-0.0269,-0.0125,0,-0.0496,-0.0562,-0.0572,-0.0642,-0.067,-0.0674,-0.0708,-0.0716,-0.0703,-0.0698,-0.0632,-0.061,-0.0535,-0.0517,-0.0462,-0.0353,-0.0292,-0.0347,-0.0172,-0.0167,-0.0152,-0.0149,-0.0268,-0.0119,-0.0117,-0.0116,-0.0115,0,-0.053,-0.0574,-0.0652,-0.0724,-0.0738,-0.0788,-0.0855,-0.0875,-0.0863,-0.0851,-0.0817,-0.0734,-0.0671,-0.0594,-0.0432,-0.0461,-0.0321,-0.0229,-0.0221,-0.0194,-0.0141,-0.01,-0.01,-0.0101,-0.0102,-0.0103,-0.0104,0,-0.0551,-0.063,-0.0706,-0.0725,-0.0798,-0.0853,-0.0898,-0.0923,-0.097,-0.0941,-0.0941,-0.085,-0.0796,-0.0637,-0.0417,-0.0414,-0.0213,-0.0193,-0.0052,-0.0048,-0.008,-0.0082,-0.0063,-0.0063,-0.0063,-0.0063,-0.0064,0,-0.0582,-0.0637,-0.0733,-0.077,-0.087,-0.0902,-0.1007,-0.1035,-0.1096,-0.1082,-0.1012,-0.0962,-0.0795,-0.0636,-0.0443,-0.0224,-0.023,-0.0062,-0.0017,-0.0101,-0.0106,-0.0073,-0.0076,-0.0058,-0.0059,-0.006,-0.0061,0,-0.0577,-0.064,-0.0726,-0.0837,-0.0881,-0.0949,-0.11,-0.1147,-0.1206,-0.1188,-0.1171,-0.1071,-0.0843,-0.0659,-0.0393,-0.0269,-0.006,0.0035,-0.006,-0.0021,0.0084,0.0077,0.0174,0.0176,0.0177,0.0178,0.0179,0,-0.058,-0.0629,-0.0766,-0.0833,-0.0894,-0.1013,-0.1068,-0.1185,-0.1193,-0.1187,-0.1117,-0.0987,-0.0838,-0.0498,-0.032,-0.0023,0.0036,0.0117,0.0085,0.007,0.0105,0.0096,0.0087,0.0181,0.0181,0.0182,0.0182,0,-0.0574,-0.0631,-0.0695,-0.0829,-0.0918,-0.0995,-0.1058,-0.1114,-0.1131,-0.1201,-0.1038,-0.0888,-0.0651,-0.0433,-0.0231,0.0002,0.0028,0.0131,0.0129,0.0101,0.008,0.0111,0.0101,0.0186,0.0186,0.0185,0.0185,0,-0.0549,-0.0599,-0.0692,-0.0804,-0.0888,-0.09,-0.0984,-0.0956,-0.101,-0.099,-0.0907,-0.0718,-0.0644,-0.0411,-0.0189,-0.0021,0.0025,0.0074,0.0076,0.0073,-0.0015,-0.0061,0.004,0,0,0,0,0,-0.0519,-0.0571,-0.0666,-0.0757,-0.0824,-0.0862,-0.0907,-0.0964,-0.0979,-0.0841,-0.0905,-0.0653,-0.0412,-0.0334,-0.0152,-0.016,0.005,0.0054,0.0108,0.0211,0.0206,0.0117,0,0,0,0,0,0,-0.0506,-0.0576,-0.0629,-0.0657,-0.0711,-0.0744,-0.0766,-0.0792,-0.0727,-0.0749,-0.0619,-0.0608,-0.0373,-0.0494,-0.0143,-0.0103,-0.0045,0.0143,0.0146,0.0213,0.0209,0.0205,0.0112,0,0,0,0,0]}]]